Weather History for KT82 - February, 2013

Change the Weather History Date:

Monday, February 4, 2013

  Actual Average (KSAT) Record (KSAT)
Temperature  
Mean Temperature 59 °F 54 °F  
Max Temperature 72 °F 65 °F 85 °F (1954)
Min Temperature 46 °F 42 °F 18 °F (1912)
Degree Days  
Heating Degree Days 6 12  
Month to date heating degree days 48  
Since 1 July heating degree days 1066  
Cooling Degree Days 0 0  
Month to date cooling degree days 0  
Year to date cooling degree days 7  
Growing Degree Days 9 (Base 50)    
Moisture  
Dew Point 52 °F    
Average Humidity 79    
Maximum Humidity 98    
Minimum Humidity 47    
Precipitation  
Precipitation 0.00 in 0.06 in 1.93 in (1965)
Month to date precipitation 0.25  
Year to date precipitation 2.01  
Snow  
Snow 0.00 in - - ()
Month to date snowfall  
Since 1 July snowfall  
Snow Depth -    
Sea Level Pressure  
Sea Level Pressure 29.91 in    
Wind  
Wind Speed 9 mph (SSW)    
Max Wind Speed 14 mph    
Max Gust Speed 20 mph    
Visibility 10 miles    
Events Rain    
T = Trace of Precipitation, MM = Missing Value Source: NWS Daily Summary

Daily Weather History Graph

Daily Weather History Graph

Search for Another Location

Airport or City:

Trip Planner

Search our weather history database for the weather conditions in past years. The results will help you decide how hot, cold, wet, or windy it might be!

Date:

Astronomy

Feb. 04, 2013 Rise Set
Actual Time 7:24 AM CST 6:15 PM CST
Civil Twilight 6:59 AM CST 6:40 PM CST
Nautical Twilight 6:30 AM CST 7:08 PM CST
Astronomical Twilight 6:02 AM CST 7:37 PM CST
Moon 1:56 AM CST (2/4) 12:46 PM CST (2/4)
Length of Visible Light 11h 41m
Length of Day
10h 51m
Last Quarter, 37% of the Moon is Illuminated
Feb 4
Last Quarter
Feb 10
New
Feb 17
First Quarter
Feb 25
Full
Mar 4
Last Quarter

Hourly Weather History & Observations

Time (CST) Temp. Windchill Dew Point Humidity Pressure Visibility Wind Dir Wind Speed Gust Speed Precip Events Conditions
12:15 AM 57.4 °F - 51.1 °F 79% 30.00 in 10.0 mi South 9.2 mph - N/A   Scattered Clouds
12:35 AM 57.6 °F - 50.4 °F 77% 29.99 in 10.0 mi South 9.2 mph - N/A   Clear
12:55 AM 57.6 °F - 48.6 °F 72% 29.99 in 10.0 mi South 13.8 mph 17.3 mph N/A   Scattered Clouds
1:15 AM 57.6 °F - 48.2 °F 71% 29.98 in 10.0 mi South 12.7 mph - N/A   Mostly Cloudy
1:35 AM 57.2 °F - 48.4 °F 72% 29.98 in 10.0 mi South 13.8 mph 19.6 mph N/A   Scattered Clouds
1:55 AM 57.2 °F - 48.7 °F 73% 29.98 in 10.0 mi South 11.5 mph 19.6 mph N/A   Scattered Clouds
2:15 AM 56.7 °F - 49.5 °F 77% 29.97 in 10.0 mi South 13.8 mph 17.3 mph N/A   Clear
2:35 AM 56.5 °F - 50.2 °F 79% 29.96 in 10.0 mi South 11.5 mph - N/A   Clear
2:55 AM 56.3 °F - 50.9 °F 82% 29.96 in 10.0 mi South 10.4 mph - N/A   Scattered Clouds
3:15 AM 56.5 °F - 51.4 °F 83% 29.96 in 10.0 mi South 10.4 mph 18.4 mph N/A   Scattered Clouds
4:55 AM 57.2 °F - 52.7 °F 85% 29.95 in 10.0 mi South 12.7 mph - N/A   Overcast
5:15 AM 57.2 °F - 52.9 °F 85% 29.95 in 10.0 mi South 10.4 mph 17.3 mph N/A   Overcast
5:35 AM 57.4 °F - 53.1 °F 85% 29.96 in 10.0 mi SSW 11.5 mph 16.1 mph N/A   Overcast
5:55 AM 57.4 °F - 53.2 °F 86% 29.96 in 10.0 mi SSW 12.7 mph - N/A   Overcast
6:15 AM 57.4 °F - 53.2 °F 86% 29.96 in 10.0 mi SSW 11.5 mph - N/A   Overcast
6:55 AM 57.2 °F - 53.6 °F 88% 29.97 in 10.0 mi SSW 12.7 mph - N/A   Overcast
7:15 AM 56.7 °F - 54.0 °F 91% 29.95 in 10.0 mi SSW 8.1 mph - N/A Rain Light Rain
7:35 AM 56.1 °F - 54.5 °F 94% 29.91 in 10.0 mi SSE 13.8 mph 18.4 mph N/A Rain Rain
7:55 AM 56.1 °F - 54.9 °F 96% 29.93 in 10.0 mi South 5.8 mph - N/A   Mostly Cloudy
8:15 AM 56.3 °F - 55.4 °F 97% 29.93 in 10.0 mi SSW 9.2 mph - N/A   Overcast
8:35 AM 56.5 °F - 55.6 °F 97% 29.93 in 10.0 mi SSW 6.9 mph - N/A   Overcast
8:55 AM 56.8 °F - 55.9 °F 97% 29.92 in 10.0 mi South 11.5 mph 17.3 mph N/A   Overcast
9:15 AM 57.7 °F - 56.3 °F 95% 29.94 in 10.0 mi SSW 10.4 mph - N/A   Overcast
9:35 AM 58.1 °F - 56.7 °F 95% 29.95 in 10.0 mi SW 8.1 mph - N/A   Overcast
9:55 AM 58.5 °F - 56.7 °F 94% 29.95 in 10.0 mi SW 13.8 mph 17.3 mph N/A   Overcast
10:15 AM 59.2 °F - 57.4 °F 94% 29.95 in 10.0 mi SW 8.1 mph - N/A   Overcast
10:35 AM 59.5 °F - 57.2 °F 92% 29.95 in 10.0 mi SW 10.4 mph - N/A   Overcast
10:55 AM 59.9 °F - 57.2 °F 91% 29.95 in 10.0 mi SW 11.5 mph - N/A   Overcast
11:15 AM 59.9 °F - 56.8 °F 90% 29.94 in 10.0 mi SSW 12.7 mph - N/A   Overcast
11:35 AM 60.1 °F - 56.3 °F 87% 29.94 in 10.0 mi SW 10.4 mph 17.3 mph N/A   Overcast
11:55 AM 60.4 °F - 56.5 °F 87% 29.93 in 10.0 mi SW 10.4 mph - N/A   Overcast
12:15 PM 62.1 °F - 56.7 °F 82% 29.93 in 10.0 mi WSW 10.4 mph - N/A   Overcast
12:35 PM 62.6 °F - 56.3 °F 80% 29.92 in 10.0 mi WSW 9.2 mph - N/A   Overcast
12:55 PM 62.4 °F - 55.4 °F 78% 29.90 in 10.0 mi SW 10.4 mph - N/A   Mostly Cloudy
1:15 PM 65.3 °F - 55.8 °F 71% 29.89 in 10.0 mi SW 10.4 mph - N/A   Scattered Clouds
1:35 PM 66.4 °F - 55.8 °F 69% 29.88 in 10.0 mi SSW 9.2 mph - N/A   Clear
1:55 PM 66.7 °F - 55.0 °F 66% 29.87 in 10.0 mi WSW 9.2 mph - N/A   Clear
2:15 PM 68.2 °F - 54.3 °F 61% 29.86 in 10.0 mi SW 5.8 mph - N/A   Clear
2:35 PM 69.4 °F - 54.5 °F 59% 29.85 in 10.0 mi SW 8.1 mph - N/A   Clear
2:55 PM 70.2 °F - 53.6 °F 56% 29.84 in 10.0 mi SSW 10.4 mph - N/A   Clear
3:15 PM 70.7 °F - 53.1 °F 54% 29.83 in 10.0 mi SW 6.9 mph - N/A   Clear
3:35 PM 71.6 °F - 52.5 °F 51% 29.83 in 10.0 mi SSW 6.9 mph - N/A   Clear
3:55 PM 70.7 °F - 51.8 °F 51% 29.83 in 10.0 mi West 6.9 mph - N/A   Clear
4:15 PM 71.8 °F - 51.6 °F 49% 29.83 in 10.0 mi SSW 6.9 mph - N/A   Clear
4:35 PM 72.0 °F - 50.9 °F 47% 29.83 in 10.0 mi SSW 5.8 mph - N/A   Clear
4:55 PM 72.1 °F - 51.3 °F 48% 29.83 in 10.0 mi South 6.9 mph - N/A   Clear
5:15 PM 71.8 °F - 51.4 °F 49% 29.83 in 10.0 mi SSW 8.1 mph - N/A   Scattered Clouds
5:35 PM 70.5 °F - 52.7 °F 53% 29.83 in 10.0 mi South 5.8 mph - N/A   Scattered Clouds
5:55 PM 68.5 °F - 52.7 °F 57% 29.84 in 10.0 mi South 4.6 mph - N/A   Scattered Clouds
6:15 PM 67.1 °F - 53.1 °F 61% 29.85 in 10.0 mi South 5.8 mph - N/A   Clear
6:35 PM 64.4 °F - 52.5 °F 65% 29.85 in 10.0 mi South 4.6 mph - N/A   Clear
6:55 PM 62.4 °F - 51.8 °F 68% 29.87 in 10.0 mi Calm Calm - N/A   Clear
7:15 PM 62.2 °F - 52.2 °F 70% 29.87 in 10.0 mi Calm Calm - N/A   Clear
7:35 PM 62.2 °F - 52.3 °F 70% 29.88 in 10.0 mi Calm Calm - N/A   Clear
7:55 PM 56.1 °F - 50.2 °F 80% 29.88 in 10.0 mi Calm Calm - N/A   Clear
8:15 PM 54.7 °F - 50.2 °F 85% 29.89 in 10.0 mi Calm Calm - N/A   Clear
8:55 PM 52.2 °F - 48.9 °F 89% 29.90 in 10.0 mi NNE 3.5 mph - N/A   Clear
9:15 PM 51.3 °F - 48.6 °F 90% 29.90 in 10.0 mi NW 3.5 mph - N/A   Clear
9:35 PM 51.4 °F - 48.6 °F 90% 29.90 in 10.0 mi Calm Calm - N/A   Clear
9:55 PM 50.2 °F - 48.6 °F 94% 29.90 in 10.0 mi NNW 4.6 mph - N/A   Clear
10:15 PM 51.1 °F - 48.4 °F 90% 29.91 in 10.0 mi Calm Calm - N/A   Clear
10:35 PM 49.1 °F - 46.9 °F 92% 29.91 in 10.0 mi WSW 3.5 mph - N/A   Clear
10:55 PM 48.4 °F - 46.6 °F 93% 29.91 in 10.0 mi Calm Calm - N/A   Clear
11:15 PM 46.9 °F - 46.2 °F 97% 29.91 in 10.0 mi Calm Calm - N/A   Clear
11:35 PM 47.7 °F - 47.1 °F 98% 29.90 in 10.0 mi Calm Calm - N/A   Clear
11:55 PM 46.4 °F 44.3 °F 45.5 °F 97% 29.90 in 10.0 mi WNW 4.6 mph - N/A   Clear